Tracking 30986 objects as of 9-Jul-2025
HD Live streaming from Space Station
objects crossing your sky now

CZ-2C R/B

Track CZ-2C R/B now!
10-day predictions


NORAD ID: 36089
Int'l Code: 2009-061B
Perigee: 670.3 km
Apogee: 782.1 km
Inclination: 98.4 °
Period: 99.2 minutes
Semi major axis: 7097 km
RCS: 9.563 m2 (large)
Launch date: November 12, 2009
Source: People's Republic of China (PRC)
Launch site: Jiuquan Satellite Launch Center, China (JSC)

Note: This is a ROCKET BODY
Your satellite tracking list
Your tracking list is empty




NASA's NSSDC Master Catalog

Two Line Element Set (TLE):
1 36089U 09061B   25189.84528597  .00000321  00000-0  88121-4 0  9995
2 36089  98.4102 160.9353 0078744  12.8833 347.4349 14.52008832828256
Source of the keplerian elements: AFSPC